Location: Unspecified
(0.0000°N, 0.0000°E)
Time: 22:18:19
(UTC+00:00)

Hubble Space Telescope - Pass Details

Date: 22 September 2017
Orbit: 537 x 541 km, 28.5° (Epoch: 24 November)

Event Time Altitude Azimuth Distance (km) Brightness Sun altitude
Exits shadow 03:59:02 15° 154° (SSE) 1,476 3.2 -28.4°
Maximum altitude 03:59:08 15° 152° (SSE) 1,475 3.2 -28.4°
Drops below altitude 10° 04:01:38 10° 115° (ESE) 1,790 4.2 -27.8°
Sets 04:04:40 0° 92° (E) 2,679 5.6 -27.0°
